FW2897 Weather Reports


Display with metric or nautical units.
time (UTC)temp
F
wind
direction
speed
MPH
gust
MPH
rain 1hr
in
rain 24hr
in
rain mn
in
humidity
%
barometer
mb
20260905201557 81 252 1.0 7.0 0.00 0.00 0.00 54 1009.6
20260905201057 81 283 1.0 7.0 0.00 0.00 0.00 53 1009.6
20260905200548 80 317 1.0 5.0 0.00 0.00 0.00 54 1009.7
20260905200057 80 317 1.0 4.0 0.00 0.00 0.00 54 1009.6
20260905195804 81 314 1.0 4.0 0.00 0.00 0.00 54 1009.7
20260905195041 82 282 1.0 4.0 0.00 0.00 0.00 52 1009.8
20260905194516 82 309 2.0 6.0 0.00 0.00 0.00 52 1009.8
20260905193947 82 308 1.0 6.0 0.00 0.00 0.00 52 1009.8
20260905193443 82 283 1.0 10.0 0.00 0.00 0.00 54 1009.9
20260905192917 81 335 2.0 10.0 0.00 0.00 0.00 53 1009.9
20260905192409 81 264 1.0 6.0 0.00 0.00 0.00 55 1009.9
20260905191906 81 344 1.0 6.0 0.00 0.00 0.00 54 1010.0
20260905191607 81 306 1.0 4.0 0.00 0.00 0.00 55 1010.1
20260905190813 81 306 1.0 4.0 0.00 0.00 0.00 58 1010.3
20260905190312 81 332 1.0 4.0 0.00 0.00 0.00 60 1010.3
20260905190009 81 359 1.0 4.0 0.00 0.00 0.00 55 1010.1
20260905185220 82 298 1.0 7.0 0.00 0.00 0.00 54 1010.3
20260905184651 82 112 1.0 7.0 0.00 0.00 0.00 55 1010.4
20260905184149 81 307 2.0 10.0 0.00 0.00 0.00 56 1010.5
20260905183645 81 275 1.0 10.0 0.00 0.00 0.00 54 1010.4
20260905183120 81 271 1.0 7.0 0.00 0.00 0.00 56 1010.4
20260905182606 81 11 2.0 7.0 0.00 0.00 0.00 54 1010.3
20260905182102 81 304 1.0 5.0 0.00 0.00 0.00 53 1010.4
20260905181537 82 288 1.0 5.0 0.00 0.00 0.00 59 1010.5
20260905180955 81 283 1.0 6.0 0.00 0.00 0.00 53 1010.5
20260905180916 82 304 1.0 6.0 0.00 0.00 0.00 53 1010.5
20260905180131 81 235 1.0 5.0 0.00 0.00 0.00 56 1010.7
20260905175336 81 295 1.0 4.0 0.00 0.00 0.00 60 1010.7
20260905174835 81 210 1.0 5.0 0.00 0.00 0.00 55 1010.6
20260905174305 81 13 1.0 5.0 0.00 0.00 0.00 60 1010.7
20260905174027 81 320 1.0 4.0 0.00 0.00 0.00 57 1010.8
20260905173300 81 308 1.0 8.0 0.00 0.00 0.00 58 1010.8
20260905172800 81 316 1.0 8.0 0.00 0.00 0.00 57 1010.8
20260905172504 81 244 1.0 6.0 0.00 0.00 0.00 58 1010.9
20260905171746 81 283 1.0 6.0 0.00 0.00 0.00 57 1010.8
20260905171219 81 302 1.0 5.0 0.00 0.00 0.00 59 1010.8
20260905170717 81 132 1.0 5.0 0.00 0.00 0.00 59 1010.8
20260905170433 81 236 0.0 3.0 0.00 0.00 0.00 59 1011.0
20260905165715 81 205 1.0 7.0 0.00 0.00 0.00 60 1010.9
20260905165151 81 259 2.0 7.0 0.00 0.00 0.00 58 1010.9
20260905164652 80 317 2.0 6.0 0.00 0.00 0.00 60 1010.9
20260905164148 80 243 1.0 5.0 0.00 0.00 0.00 58 1011.0
20260905163645 81 30 1.0 3.0 0.00 0.00 0.00 60 1011.0
20260905163126 80 131 1.0 3.0 0.00 0.00 0.00 61 1011.1
20260905162829 80 110 1.0 4.0 0.00 0.00 0.00 62 1011.3
20260905162111 80 231 1.0 4.0 0.00 0.00 0.00 61 1011.3
20260905161550 79 345 1.0 6.0 0.00 0.00 0.00 63 1011.4
20260905161053 79 294 1.0 5.0 0.00 0.00 0.00 61 1011.4
20260905160531 79 355 2.0 7.0 0.00 0.00 0.00 63 1011.3
20260905160038 79 281 2.0 7.0 0.00 0.00 0.00 63 1011.5
20260905155514 79 326 1.0 6.0 0.00 0.00 0.00 62 1011.6
20260905154959 79 249 1.0 4.0 0.00 0.00 0.00 63 1011.6
20260905154500 79 259 1.0 6.0 0.00 0.00 0.00 62 1011.6
20260905154202 79 281 1.0 6.0 0.00 0.00 0.00 63 1011.6
20260905153439 79 311 1.0 4.0 0.00 0.00 0.00 65 1011.5
20260905152923 79 218 1.0 5.0 0.00 0.00 0.00 64 1011.5
20260905152422 78 322 1.0 5.0 0.00 0.00 0.00 65 1011.4
20260905151854 78 281 1.0 6.0 0.00 0.00 0.00 68 1011.5
20260905151333 77 220 1.0 8.0 0.00 0.00 0.00 68 1011.5
20260905150810 76 7 0.0 2.0 0.00 0.00 0.00 72 1011.6
20260905150247 76 299 0.0 6.0 0.00 0.00 0.00 71 1011.6
20260905145726 76 162 0.0 2.0 0.00 0.00 0.00 71 1011.5
20260905145202 75 288 0.0 3.0 0.00 0.00 0.00 72 1011.3
20260905144638 75 300 1.0 4.0 0.00 0.00 0.00 72 1011.3
20260905144113 74 291 1.0 4.0 0.00 0.00 0.00 72 1011.3
20260905143810 74 328 0.0 3.0 0.00 0.00 0.00 73 1011.2
20260905143020 74 267 0.0 3.0 0.00 0.00 0.00 73 1011.3
20260905142458 74 316 0.0 3.0 0.00 0.00 0.00 74 1011.3
20260905141952 73 338 0.0 3.0 0.00 0.00 0.00 75 1011.4
20260905141449 73 335 0.0 3.0 0.00 0.00 0.00 76 1011.5
20260905141148 73 339 0.0 2.0 0.00 0.00 0.00 76 1011.5
20260905140356 73 319 0.0 2.0 0.00 0.00 0.00 75 1011.5
20260905135833 73 272 0.0 3.0 0.00 0.00 0.00 74 1011.4
20260905135323 73 311 0.0 3.0 0.00 0.00 0.00 76 1011.4
20260905134820 73 240 0.0 2.0 0.00 0.00 0.00 75 1011.4
20260905134321 73 314 0.0 1.0 0.00 0.00 0.00 76 1011.2
20260905133830 73 290 0.0 3.0 0.00 0.00 0.00 76 1011.3
20260905133540 73 285 0.0 3.0 0.00 0.00 0.00 74 1011.2
20260905133018 73 279 0.0 1.0 0.00 0.00 0.00 75 1011.2
20260905132224 72 259 0.0 4.0 0.00 0.00 0.00 74 1011.2
20260905131656 73 273 0.0 2.0 0.00 0.00 0.00 75 1011.0
20260905131150 73 297 0.0 1.0 0.00 0.00 0.00 75 1010.9
20260905130701 72 276 0.0 1.0 0.00 0.00 0.00 76 1011.0
20260905130200 72 278 0.0 1.0 0.00 0.00 0.00 76 1011.0
20260905125619 73 278 0.0 2.0 0.00 0.00 0.00 76 1011.2
20260905125116 72 278 0.0 2.0 0.00 0.00 0.00 76 1011.0
20260905124605 72 231 0.0 3.0 0.00 0.00 0.00 76 1011.0
20260905124105 72 253 0.0 3.0 0.00 0.00 0.00 78 1011.1
20260905123603 72 289 0.0 2.0 0.00 0.00 0.00 77 1011.1
20260905123101 72 266 0.0 1.0 0.00 0.00 0.00 77 1011.1
20260905122603 72 265 0.0 1.0 0.00 0.00 0.00 78 1011.1
20260905122051 72 263 0.0 1.0 0.00 0.00 0.00 78 1011.0
20260905121524 72 262 0.0 3.0 0.00 0.00 0.00 78 1011.0
20260905120955 72 268 0.0 2.0 0.00 0.00 0.00 78 1011.0
20260905120719 72 258 0.0 1.0 0.00 0.00 0.00 78 1011.2
20260905115926 72 258 0.0 1.0 0.00 0.00 0.00 78 1011.2
20260905115422 72 258 0.0 1.0 0.00 0.00 0.00 77 1011.2
20260905114921 72 144 0.0 1.0 0.00 0.00 0.00 77 1011.1
20260905114420 72 257 0.0 1.0 0.00 0.00 0.00 78 1011.0
20260905114143 72 311 0.0 3.0 0.00 0.00 0.00 78 1011.0
20260905113416 72 303 0.0 3.0 0.00 0.00 0.00 77 1010.8
20260905112914 72 278 0.0 1.0 0.00 0.00 0.00 78 1010.7
20260905112407 72 313 0.0 1.0 0.00 0.00 0.00 78 1010.7
20260905111841 72 245 0.0 1.0 0.00 0.00 0.00 79 1010.5
20260905111534 72 326 0.0 4.0 0.00 0.00 0.00 78 1010.4
20260905111034 72 290 0.0 4.0 0.00 0.00 0.00 78 1010.4
20260905110306 72 325 0.0 3.0 0.00 0.00 0.00 79 1010.4
20260905105806 72 325 0.0 1.0 0.00 0.00 0.00 80 1010.4
20260905105237 72 327 0.0 3.0 0.00 0.00 0.00 80 1010.1
20260905104734 72 345 0.0 3.0 0.00 0.00 0.00 79 1010.1
20260905104207 72 297 0.0 3.0 0.00 0.00 0.00 80 1010.0
20260905103705 72 303 0.0 4.0 0.00 0.00 0.00 80 1010.1
20260905103608 72 304 0.0 2.0 0.00 0.00 0.00 81 1010.0
20260905103603 72 304 0.0 0.0 0.00 0.00 0.00 81 1009.9
20260905102123 72 314 0.0 0.0 0.00 0.00 0.00 81 1009.9
20260905101625 72 322 0.0 1.0 0.00 0.00 0.00 82 1009.8
20260905101112 72 319 0.0 1.0 0.00 0.00 0.00 82 1009.8
20260905100614 72 286 0.0 0.0 0.00 0.00 0.00 83 1009.8
20260905095523 72 285 0.0 1.0 0.00 0.00 0.00 83 1009.8
20260905094957 72 286 0.0 1.0 0.00 0.00 0.00 82 1009.9
20260905094454 72 284 0.0 1.0 0.00 0.00 0.00 83 1009.9
20260905093928 72 284 0.0 1.0 0.00 0.00 0.00 83 1009.9
20260905093358 72 275 0.0 0.0 0.00 0.00 0.00 84 1009.8
20260905092902 72 262 0.0 0.0 0.00 0.00 0.00 84 1009.8
20260905092334 72 261 0.0 0.0 0.00 0.00 0.00 84 1009.9
20260905091807 72 261 0.0 0.0 0.00 0.00 0.00 84 1009.9
20260905091532 72 262 0.0 0.0 0.00 0.00 0.00 84 1009.8
20260905090744 72 261 0.0 0.0 0.00 0.00 0.00 84 1009.8
20260905090241 72 261 0.0 0.0 0.00 0.00 0.00 83 1009.9
20260905085741 72 260 0.0 0.0 0.00 0.00 0.00 84 1009.9
20260905085246 72 260 0.0 0.0 0.00 0.00 0.00 84 1009.8
20260905084722 72 260 0.0 2.0 0.00 0.00 0.00 84 1009.8
20260905084155 72 260 0.0 2.0 0.00 0.00 0.00 84 1009.8
20260905083919 72 264 0.0 1.0 0.00 0.00 0.00 85 1009.7
20260905083147 72 264 0.0 1.0 0.00 0.00 0.00 85 1009.7
20260905082647 72 284 0.0 1.0 0.00 0.00 0.00 87 1009.8
20260905082144 72 2 0.0 0.0 0.00 0.00 0.00 87 1009.8
20260905081643 72 2 0.0 0.0 0.00 0.00 0.00 87 1009.7
20260905081408 72 1 0.0 0.0 0.00 0.00 0.00 87 1009.8
20260905080641 71 1 0.0 0.0 0.00 0.00 0.00 87 1009.7
20260905080124 71 1 0.0 0.0 0.00 0.00 0.00 87 1009.7
20260905075626 71 1 0.0 0.0 0.00 0.00 0.00 87 1009.8
20260905075112 71 1 0.0 0.0 0.00 0.00 0.00 87 1009.8
20260905074609 71 1 0.0 0.0 0.00 0.00 0.00 87 1009.8
20260905074109 71 1 0.0 0.0 0.00 0.00 0.00 87 1009.8
20260905073608 71 1 0.0 0.0 0.00 0.00 0.00 87 1009.7
20260905073047 71 1 0.0 0.0 0.00 0.00 0.00 87 1009.7
20260905072545 71 1 0.0 0.0 0.00 0.00 0.00 88 1009.7
20260905072254 71 1 0.0 0.0 0.00 0.00 0.00 88 1009.9
20260905071511 71 1 0.0 0.0 0.00 0.00 0.00 88 1009.9
20260905071231 71 1 0.0 1.0 0.00 0.00 0.00 87 1009.9
20260905070732 71 1 0.0 1.0 0.00 0.00 0.00 87 1009.9
20260905070443 71 1 0.0 0.0 0.00 0.00 0.00 87 1009.8
20260905065415 72 2 0.0 0.0 0.00 0.00 0.00 87 1009.7
20260905065137 72 1 0.0 0.0 0.00 0.00 0.00 87 1009.7
20260905064410 72 1 0.0 0.0 0.00 0.00 0.00 87 1009.7
20260905063844 72 1 0.0 0.0 0.00 0.00 0.00 87 1009.8
20260905063542 72 1 0.0 0.0 0.00 0.00 0.00 87 1009.8
20260905062747 72 1 0.0 0.0 0.00 0.00 0.00 87 1010.0
20260905062712 72 1 0.0 0.0 0.00 0.00 0.00 87 1009.9
20260905061657 72 1 0.0 0.0 0.00 0.00 0.00 87 1010.0
20260905061130 72 1 0.0 0.0 0.00 0.00 0.00 86 1010.1
20260905060626 73 1 0.0 0.0 0.00 0.00 0.00 86 1010.3
20260905060122 73 1 0.0 0.0 0.00 0.00 0.00 85 1010.3
20260905055622 73 1 0.0 0.0 0.00 0.00 0.00 85 1010.4
20260905055057 73 1 0.0 0.0 0.00 0.00 0.00 85 1010.3
20260905054529 74 1 0.0 0.0 0.00 0.00 0.00 85 1010.3
20260905054004 74 1 0.0 0.0 0.00 0.00 0.00 84 1010.5
20260905053500 74 2 0.0 0.0 0.00 0.00 0.00 84 1010.4
20260905052959 74 2 0.0 1.0 0.00 0.00 0.00 84 1010.4
20260905052431 74 1 0.0 1.0 0.00 0.00 0.00 84 1010.5
20260905051928 75 1 0.0 1.0 0.00 0.00 0.00 84 1010.7
20260905051359 75 1 0.0 1.0 0.00 0.00 0.00 84 1010.6
20260905050859 75 1 0.0 0.0 0.00 0.00 0.00 84 1010.5
20260905050606 75 2 0.0 2.0 0.00 0.00 0.00 84 1010.5
20260905045829 76 3 0.0 3.0 0.00 0.00 0.00 84 1010.5
20260905045301 76 278 0.0 5.0 0.00 0.00 0.00 84 1010.5
20260905044759 76 240 0.0 1.0 0.00 0.00 0.00 84 1010.6
20260905044233 76 295 0.0 1.0 0.00 0.00 0.00 86 1010.7
20260905044210 76 315 0.0 1.0 0.00 0.00 0.00 86 1010.6
20260905043222 76 285 0.0 0.0 0.00 0.00 0.00 87 1010.6
20260905042653 76 285 0.0 0.0 0.00 0.00 0.00 87 1010.6
20260905042152 76 285 0.0 0.0 0.00 0.00 0.00 87 1010.7
20260905041623 76 285 0.0 0.0 0.00 0.00 0.00 88 1010.7
20260905041352 76 285 0.0 0.0 0.00 0.01 0.00 88 1010.7
20260905040610 76 285 0.0 0.0 0.00 0.02 0.00 87 1010.7
20260905040559 76 285 0.0 0.0 0.00 0.03 0.00 87 1010.8
20260905035812 76 285 0.0 0.0 0.00 0.26 0.08 87 1010.8
20260905035018 76 285 0.0 0.0 0.00 0.37 0.08 87 1010.7
20260905034517 76 285 0.0 0.0 0.00 0.38 0.08 87 1010.7
20260905033950 76 285 0.0 0.0 0.00 0.51 0.08 87 1010.5
20260905033444 76 285 0.0 0.0 0.00 0.58 0.08 87 1010.5
20260905032943 76 285 0.0 0.0 0.00 0.58 0.08 87 1010.5
20260905032706 76 285 0.0 0.0 0.00 0.58 0.08 87 1010.6
20260905032157 76 284 0.0 0.0 0.00 0.58 0.08 87 1010.6
20260905031637 76 285 0.0 0.0 0.00 0.58 0.08 86 1010.6
20260905031129 76 285 0.0 0.0 0.00 0.58 0.08 86 1010.6
20260905030339 76 285 0.0 0.0 0.00 0.58 0.08 87 1010.6
20260905025809 76 285 0.0 0.0 0.00 0.58 0.08 86 1010.7
20260905025309 76 285 0.0 0.0 0.00 0.58 0.08 86 1010.5
20260905024742 76 285 0.0 0.0 0.00 0.58 0.08 86 1010.5
20260905024442 76 284 0.0 0.0 0.00 0.58 0.08 86 1010.5
20260905023709 77 285 0.0 0.0 0.00 0.58 0.08 86 1010.5
20260905023207 77 285 0.0 0.0 0.00 0.58 0.08 86 1010.5
20260905022706 77 285 0.0 0.0 0.00 0.58 0.08 86 1010.4
20260905022137 77 285 0.0 0.0 0.00 0.58 0.08 86 1010.4
20260905021635 77 285 0.0 0.0 0.00 0.58 0.08 86 1010.6
20260905021118 77 285 0.0 0.0 0.00 0.58 0.08 86 1010.6
20260905020841 76 285 0.0 0.0 0.00 0.58 0.08 87 1010.5
20260905020106 76 284 0.0 0.0 0.00 0.58 0.08 86 1010.4
20260905020049 77 285 0.0 0.0 0.00 0.58 0.08 87 1010.4
20260905015035 77 285 0.0 0.0 0.00 0.58 0.08 87 1010.4
20260905014532 77 284 0.0 0.0 0.00 0.58 0.08 87 1010.3
20260905014256 77 285 0.0 0.0 0.00 0.58 0.08 86 1010.3
20260905013530 77 285 0.0 0.0 0.00 0.58 0.08 86 1010.3
20260905013008 77 285 0.0 0.0 0.00 0.58 0.08 85 1010.4
20260905012504 78 285 0.0 0.0 0.00 0.58 0.08 85 1010.4
20260905012001 78 285 0.0 0.0 0.00 0.58 0.08 84 1010.4
20260905011500 78 285 0.0 0.0 0.00 0.58 0.08 84 1010.5
20260905011222 77 285 0.0 0.0 0.00 0.58 0.08 85 1010.5
20260905010431 77 285 0.0 0.0 0.00 0.58 0.08 86 1010.5
20260905005908 77 285 0.0 0.0 0.00 0.58 0.08 86 1010.5
20260905005407 77 285 0.0 0.0 0.00 0.58 0.08 85 1010.5
20260905004844 77 285 0.0 0.0 0.00 0.58 0.08 85 1010.5
20260905004557 77 285 0.0 0.0 0.00 0.58 0.08 85 1010.5
20260905003832 78 285 0.0 0.0 0.00 0.58 0.08 84 1010.5
20260905003320 78 285 0.0 1.0 0.00 0.58 0.08 83 1010.6
20260905002818 78 285 0.0 1.0 0.00 0.58 0.08 82 1010.5
20260905002320 78 284 0.0 0.0 0.00 0.58 0.08 81 1010.5
20260905001823 78 285 0.0 0.0 0.00 0.58 0.08 81 1010.1
20260905001321 78 285 0.0 0.0 0.00 0.58 0.08 82 1010.1
20260905000822 78 285 0.0 1.0 0.00 0.58 0.08 82 1010.1
20260905000805 79 285 0.0 1.0 0.00 0.58 0.08 82 1010.0
20260904235819 79 285 0.0 1.0 0.00 0.58 0.08 81 1010.1
20260904235259 79 285 0.0 1.0 0.00 0.58 0.08 81 1010.3
20260904234757 79 284 0.0 0.0 0.00 0.58 0.08 80 1010.1
20260904234258 79 284 0.0 0.0 0.00 0.58 0.08 79 1010.0
20260904233736 80 285 0.0 0.0 0.00 0.58 0.08 78 1010.1
20260904233238 80 285 0.0 0.0 0.00 0.58 0.08 77 1010.1
20260904232721 81 285 0.0 0.0 0.00 0.58 0.08 76 1010.0
20260904232152 81 285 0.0 0.0 0.00 0.58 0.08 74 1010.1
20260904231856 82 285 0.0 1.0 0.00 0.58 0.08 74 1010.3
20260904231101 82 285 0.0 1.0 0.00 0.58 0.08 73 1010.1
20260904230558 82 285 0.0 1.0 0.00 0.58 0.08 71 1010.3
20260904230106 82 285 0.0 1.0 0.00 0.58 0.08 71 1010.4
20260904225553 83 283 0.0 1.0 0.00 0.58 0.08 70 1010.5
20260904225049 83 280 0.0 1.0 0.00 0.58 0.08 70 1010.5
20260904224551 83 280 0.0 0.0 0.00 0.58 0.08 70 1010.6
20260904224024 83 315 0.0 0.0 0.00 0.58 0.08 71 1010.6
20260904223520 83 315 0.0 0.0 0.00 0.58 0.08 72 1010.6
20260904223018 83 315 0.0 0.0 0.00 0.58 0.08 71 1010.5
20260904222452 83 315 0.0 0.0 0.00 0.58 0.08 70 1010.4
20260904221924 84 289 0.0 0.0 0.00 0.58 0.08 69 1010.4
20260904221628 84 304 0.0 0.0 0.00 0.58 0.08 66 1010.4
20260904221321 84 299 0.0 1.0 0.00 0.58 0.08 68 1010.4
20260904220529 84 295 0.0 2.0 0.00 0.58 0.08 67 1010.4
20260904220221 84 331 0.0 2.0 0.00 0.58 0.08 67 1010.6
20260904215214 84 315 0.0 4.0 0.00 0.58 0.08 67 1010.7
20260904214647 84 295 0.0 4.0 0.00 0.58 0.08 67 1010.7
20260904214120 84 302 0.0 2.0 0.00 0.58 0.08 68 1010.7
20260904213622 84 290 0.0 2.0 0.00 0.58 0.08 67 1010.8
20260904213051 84 290 0.0 3.0 0.00 0.58 0.08 67 1011.0
20260904212523 84 295 0.0 3.0 0.00 0.58 0.08 66 1011.1
20260904212023 84 300 1.0 3.0 0.00 0.58 0.08 66 1011.0
20260904211509 84 283 1.0 5.0 0.00 0.58 0.08 66 1011.0
20260904210945 85 274 1.0 5.0 0.00 0.58 0.08 66 1011.0
20260904210711 85 296 1.0 5.0 0.00 0.58 0.08 64 1010.9
20260904210147 85 301 1.0 5.0 0.00 0.58 0.08 64 1010.8
20260904205351 85 6 0.0 4.0 0.00 0.58 0.08 64 1010.7
20260904205110 85 311 0.0 2.0 0.00 0.58 0.08 67 1010.6
20260904204553 85 330 0.0 5.0 0.00 0.58 0.08 64 1010.6
20260904204025 85 302 1.0 5.0 0.00 0.58 0.08 64 1010.7
20260904203304 85 260 0.0 4.0 0.00 0.58 0.08 64 1010.5
20260904202748 86 345 0.0 4.0 0.00 0.58 0.08 65 1010.6
20260904202509 86 316 0.0 4.0 0.00 0.58 0.08 63 1010.9